Vorticity
nan nan nan nan nan nan nan nan nan nan nan nan nan nan nan nan nan nan nan nan nan nan nan nan nan nan nan nan nan nan nan nan
nan 6 6 5 6 7 7 7 7 7 6 6 6 5 5 7 7 2 6 6 5 6 5 6 5 4 8 10 5 0 4 nan
nan 5 6 8 6 6 7 7 5 5 4 3 1 4 6 8 7 8 7 6 5 6 5 5 4 2 6 7 -1 2 6 nan
nan 8 7 5 6 7 5 5 5 5 6 3 4 7 6 6 7 8 5 6 4 5 5 3 2 2 5 4 4 8 6 nan
nan 6 7 6 5 4 5 7 8 9 8 5 4 4 7 7 6 5 6 4 4 5 4 6 6 6 7 6 8 7 7 nan
nan 7 7 4 4 7 7 6 7 8 10 6 3 6 7 6 7 7 5 5 7 5 7 8 7 7 8 8 7 7 7 nan
nan 6 6 7 5 5 7 7 7 8 8 7 6 7 6 6 7 7 6 7 6 6 7 8 7 6 8 8 6 7 8 nan
nan 6 6 7 7 5 4 7 8 7 8 9 6 5 7 7 7 7 7 6 7 9 7 6 8 7 9 9 7 6 7 nan
nan 6 7 7 7 4 5 7 7 7 9 10 6 6 7 6 6 6 7 8 8 6 6 7 8 8 9 8 7 8 8 nan
nan 8 8 6 6 6 7 7 7 8 8 10 9 7 6 4 6 7 8 7 7 7 7 5 6 7 8 9 7 9 8 nan
nan 9 8 6 5 7 10 8 5 7 8 10 9 8 6 4 6 9 8 6 7 7 8 7 5 8 9 9 8 9 8 nan
nan 9 9 5 4 6 7 10 9 7 7 11 8 8 8 4 7 9 6 7 8 8 7 6 10 9 7 7 8 8 8 nan
nan 8 6 4 6 7 7 8 8 9 11 11 8 7 8 4 6 9 8 9 8 4 7 6 5 8 4 5 8 11 10 nan
nan 9 7 3 4 7 8 9 9 8 9 11 10 7 7 6 7 8 6 6 10 9 3 1 10 9 2 5 7 5 11 nan
nan 10 8 7 4 3 6 6 9 12 10 10 12 11 9 7 6 7 7 6 9 8 8 5 3 7 7 3 8 10 8 nan
nan 10 8 7 6 8 8 3 3 8 11 11 13 12 8 7 8 8 5 6 10 7 7 7 8 5 1 6 9 13 6 nan
nan 17 10 9 7 4 4 8 9 9 10 10 9 10 9 7 8 9 6 7 10 8 7 6 5 7 4 1 2 6 10 nan
nan 22 19 15 16 12 8 7 6 7 10 8 8 9 11 10 7 9 8 8 8 9 10 7 5 5 7 5 4 2 6 nan
nan 12 13 17 19 20 17 11 10 7 6 9 8 7 11 12 6 7 9 9 7 8 10 9 8 8 5 3 6 3 5 nan
nan nan nan nan nan nan nan nan nan nan nan nan nan nan nan nan nan nan nan nan nan nan nan nan nan nan nan nan nan nan nan nan
CAPE
1678 1693 1653 1586 1632 1794 1700 1762 1865 1969 2086 2191 2092 1819 1554 1438 1366 1005 1238 1283 1124 909 646 532 533 301 0 0 0 0 0 0
1775 1984 1836 1732 1711 1608 1567 1671 1755 1838 1960 1969 1682 1559 1429 1285 995 1146 1212 1114 835 592 355 299 261 46 0 0 0 0 0 0
1684 1666 1893 1784 1669 1686 1575 1642 1696 1729 1839 1605 1310 1534 1338 1200 1028 1110 1012 780 524 333 175 87 33 1 0 0 0 0 0 0
1675 1754 1682 1552 1891 1817 1843 1905 1859 1855 1811 1556 1480 1472 1266 1126 991 912 745 478 281 151 77 27 0 0 0 0 0 0 0 0
1863 1661 1708 1784 1868 1842 1890 1948 1964 1926 1797 1671 1366 1261 1131 861 907 743 458 251 81 37 5 0 0 0 0 0 0 0 0 0
2015 1787 1689 1732 1810 1905 2009 2090 1981 1817 1694 1605 1235 1038 752 573 811 671 409 59 9 0 0 0 0 0 0 0 0 0 0 0
1923 1873 1824 1774 1816 1861 1810 1914 2060 1970 1743 1582 1175 925 710 519 463 410 220 20 0 0 0 0 0 0 0 0 0 0 0 0
1896 2125 1862 1884 2000 1838 1828 1835 1854 1957 1711 1515 1172 881 509 338 199 195 79 8 0 0 0 0 0 0 0 0 0 0 0 0
1838 2241 1952 1930 2058 1837 1824 1906 1806 1778 1697 1391 1214 784 327 221 103 63 13 0 0 0 0 0 0 0 0 0 0 0 0 0
1844 2096 2224 1983 2071 1845 1808 1708 1740 1591 1685 1402 1286 779 233 117 49 5 0 0 0 0 0 0 0 0 0 0 0 0 0 0
1787 1790 2351 2097 2146 1960 1840 1635 1667 1661 1742 1543 1363 821 233 124 39 1 0 0 0 0 0 0 0 0 0 0 0 0 0 0
1696 1732 2184 2169 2129 2086 1934 1767 1592 1638 1679 1567 1342 935 216 95 22 0 0 0 0 0 0 0 0 0 0 0 0 0 0 0
1596 1751 1962 2143 1948 2179 2039 2018 1915 1708 1625 1537 1379 1107 277 136 10 0 0 0 0 0 0 0 0 0 0 0 0 0 0 0
1623 1693 1966 2134 1979 2111 2056 1921 1951 1893 1861 1678 1479 1376 477 207 0 0 0 0 0 0 0 0 0 0 0 0 0 0 0 0
1723 1716 1856 2100 2080 2033 2172 2034 1792 1946 1834 1704 1601 1470 762 267 2 0 0 0 0 0 0 0 0 0 0 0 0 0 0 0
1637 1887 1837 1834 2003 2025 2068 1980 1803 1755 1741 1889 1768 1473 840 541 3 0 0 0 0 0 0 0 0 0 0 0 0 0 0 0
1019 2235 1916 1792 1710 1812 1644 1370 1496 1602 1476 1641 1705 1512 975 670 21 0 0 0 0 0 0 0 0 0 0 0 0 0 0 0
5 930 2036 1921 1696 1603 1624 1456 1429 1214 1163 1518 1564 1550 1222 932 260 0 0 0 0 0 0 0 0 0 0 0 0 0 0 0
0 0 0 0 1 537 1168 1214 1206 1039 1213 1312 1451 1229 1401 1229 848 0 0 0 0 0 0 0 0 0 0 0 0 0 0 0
0 0 0 0 0 0 7 583 660 486 313 973 1252 1065 1155 1427 866 331 0 0 0 0 0 0 0 0 0 0 0 0 0 0